Time,TemperatureF,DewpointF,PressureIn,WindDirection,WindDirectionDegrees,WindSpeedMPH,WindSpeedGustMPH,Humidity,HourlyPrecipIn,Conditions,Clouds,dailyrainin,SoftwareType,DateUTC
2013-03-03 00:00:00,27.3,18.8,29.89,West,262,4.0,7.0,70,0.00,,,0.00,Wunderground v.1.15,2013-03-03 05:00:00,
2013-03-03 00:05:00,27.3,19.5,29.89,NW,324,4.0,7.0,72,0.00,,,0.00,Wunderground v.1.15,2013-03-03 05:05:00,
2013-03-03 00:10:00,27.3,19.5,29.89,SE,137,3.0,3.0,72,0.00,,,0.00,Wunderground v.1.15,2013-03-03 05:10:00,
2013-03-03 00:20:00,27.2,19.4,29.88,SW,235,3.0,5.0,72,0.00,,,0.00,Wunderground v.1.15,2013-03-03 05:20:00,
2013-03-03 00:30:00,27.2,19.7,29.88,SW,224,3.0,3.0,73,0.00,,,0.00,Wunderground v.1.15,2013-03-03 05:30:00,
2013-03-03 00:40:00,27.1,19.6,29.88,South,169,2.0,2.0,73,0.00,,,0.00,Wunderground v.1.15,2013-03-03 05:40:00,
2013-03-03 00:50:00,27.2,20.0,29.88,WSW,245,4.0,4.0,74,0.00,,,0.00,Wunderground v.1.15,2013-03-03 05:50:00,
2013-03-03 00:55:00,27.2,19.7,29.88,South,177,3.0,4.0,73,0.00,,,0.00,Wunderground v.1.15,2013-03-03 05:55:00,
2013-03-03 01:05:00,27.2,19.7,29.88,WSW,257,4.0,4.0,73,0.00,,,0.00,Wunderground v.1.15,2013-03-03 06:05:00,
2013-03-03 01:15:00,27.2,19.7,29.88,North,354,3.0,3.0,73,0.00,,,0.00,Wunderground v.1.15,2013-03-03 06:15:00,
2013-03-03 01:25:00,27.3,20.4,29.88,SSW,208,1.0,3.0,75,0.00,,,0.00,Wunderground v.1.15,2013-03-03 06:25:00,
2013-03-03 01:35:00,27.3,20.1,29.88,South,189,3.0,3.0,74,0.00,,,0.00,Wunderground v.1.15,2013-03-03 06:35:00,
2013-03-03 01:45:00,27.3,20.1,29.88,WNW,288,3.0,7.0,74,0.00,,,0.00,Wunderground v.1.15,2013-03-03 06:45:00,
2013-03-03 01:55:00,27.3,20.4,29.87,West,266,4.0,6.0,75,0.00,,,0.00,Wunderground v.1.15,2013-03-03 06:55:00,
2013-03-03 02:05:00,27.2,20.0,29.88,WSW,251,5.0,5.0,74,0.00,,,0.00,Wunderground v.1.15,2013-03-03 07:05:00,
2013-03-03 02:15:00,27.1,19.9,29.87,NNW,337,4.0,6.0,74,0.00,,,0.00,Wunderground v.1.15,2013-03-03 07:15:00,
2013-03-03 02:25:00,27.1,19.9,29.87,SW,231,5.0,5.0,74,0.00,,,0.00,Wunderground v.1.15,2013-03-03 07:25:00,
2013-03-03 02:35:00,27.0,20.4,29.86,West,277,4.0,4.0,76,0.00,,,0.00,Wunderground v.1.15,2013-03-03 07:35:00,
2013-03-03 02:40:00,26.9,20.3,29.86,ENE,67,2.0,3.0,76,0.00,,,0.00,Wunderground v.1.15,2013-03-03 07:40:00,
2013-03-03 02:50:00,26.9,20.0,29.86,West,263,4.0,4.0,75,0.00,,,0.00,Wunderground v.1.15,2013-03-03 07:50:00,
2013-03-03 03:00:00,26.9,20.3,29.86,West,261,4.0,4.0,76,0.00,,,0.00,Wunderground v.1.15,2013-03-03 08:00:00,
2013-03-03 03:05:00,26.9,20.3,29.85,South,180,5.0,5.0,76,0.00,,,0.00,Wunderground v.1.15,2013-03-03 08:05:00,
2013-03-03 03:15:00,26.8,20.2,29.86,NW,323,3.0,4.0,76,0.00,,,0.00,Wunderground v.1.15,2013-03-03 08:15:00,
2013-03-03 03:20:00,26.7,20.1,29.85,West,277,3.0,7.0,76,0.00,,,0.00,Wunderground v.1.15,2013-03-03 08:20:00,
2013-03-03 03:30:00,26.8,20.2,29.85,NNE,27,4.0,4.0,76,0.00,,,0.00,Wunderground v.1.15,2013-03-03 08:30:00,
2013-03-03 03:40:00,26.9,20.3,29.86,SW,235,4.0,4.0,76,0.00,,,0.00,Wunderground v.1.15,2013-03-03 08:40:00,
2013-03-03 03:45:00,26.9,20.7,29.86,NW,316,3.0,4.0,77,0.00,,,0.00,Wunderground v.1.15,2013-03-03 08:45:00,
2013-03-03 03:55:00,26.9,21.0,29.86,West,280,2.0,3.0,78,0.00,,,0.00,Wunderground v.1.15,2013-03-03 08:55:00,
2013-03-03 04:05:00,26.9,20.7,29.86,NNW,340,3.0,5.0,77,0.00,,,0.00,Wunderground v.1.15,2013-03-03 09:05:00,
2013-03-03 04:15:00,27.0,20.7,29.86,SSW,207,5.0,6.0,77,0.00,,,0.00,Wunderground v.1.15,2013-03-03 09:15:00,
2013-03-03 04:25:00,27.0,20.4,29.86,ESE,116,3.0,4.0,76,0.00,,,0.00,Wunderground v.1.15,2013-03-03 09:25:00,
2013-03-03 04:35:00,27.1,20.5,29.86,North,8,3.0,3.0,76,0.00,,,0.00,Wunderground v.1.15,2013-03-03 09:35:00,
2013-03-03 04:40:00,27.0,20.7,29.86,ENE,70,3.0,3.0,77,0.00,,,0.00,Wunderground v.1.15,2013-03-03 09:40:00,
2013-03-03 04:50:00,27.0,20.7,29.86,ENE,66,2.0,3.0,77,0.00,,,0.00,Wunderground v.1.15,2013-03-03 09:50:00,
2013-03-03 05:00:00,26.9,21.0,29.86,South,178,2.0,2.0,78,0.00,,,0.00,Wunderground v.1.15,2013-03-03 10:00:00,
2013-03-03 05:05:00,26.9,20.3,29.86,SSE,150,3.0,3.0,76,0.00,,,0.00,Wunderground v.1.15,2013-03-03 10:05:00,
2013-03-03 05:15:00,26.8,20.6,29.86,East,83,2.0,5.0,77,0.00,,,0.00,Wunderground v.1.15,2013-03-03 10:15:00,
2013-03-03 05:25:00,26.8,20.6,29.86,ESE,111,4.0,5.0,77,0.00,,,0.00,Wunderground v.1.15,2013-03-03 10:25:00,
2013-03-03 05:35:00,26.9,20.3,29.86,NE,41,4.0,5.0,76,0.00,,,0.00,Wunderground v.1.15,2013-03-03 10:35:00,
2013-03-03 05:45:00,26.9,20.0,29.87,SSW,204,3.0,4.0,75,0.00,,,0.00,Wunderground v.1.15,2013-03-03 10:45:00,
2013-03-03 05:55:00,26.8,20.2,29.86,ENE,64,4.0,7.0,76,0.00,,,0.00,Wunderground v.1.15,2013-03-03 10:55:00,
2013-03-03 06:05:00,26.7,19.8,29.86,ESE,103,2.0,5.0,75,0.00,,,0.00,Wunderground v.1.15,2013-03-03 11:05:00,
2013-03-03 06:15:00,26.7,20.1,29.86,WNW,291,3.0,5.0,76,0.00,,,0.00,Wunderground v.1.15,2013-03-03 11:15:00,
2013-03-03 06:25:00,26.5,19.6,29.87,West,269,4.0,8.0,75,0.00,,,0.00,Wunderground v.1.15,2013-03-03 11:25:00,
2013-03-03 06:35:00,26.4,18.9,29.87,South,178,3.0,3.0,73,0.00,,,0.00,Wunderground v.1.15,2013-03-03 11:35:00,
2013-03-03 06:45:00,26.5,19.0,29.86,SW,235,2.0,4.0,73,0.00,,,0.00,Wunderground v.1.15,2013-03-03 11:45:00,
2013-03-03 06:50:00,26.5,19.3,29.87,South,174,5.0,5.0,74,0.00,,,0.00,Wunderground v.1.15,2013-03-03 11:50:00,
2013-03-03 07:00:00,26.3,18.8,29.87,WNW,285,3.0,3.0,73,0.00,,,0.00,Wunderground v.1.15,2013-03-03 12:00:00,
2013-03-03 07:05:00,26.3,18.8,29.87,NNE,19,3.0,3.0,73,0.00,,,0.00,Wunderground v.1.15,2013-03-03 12:05:00,
2013-03-03 07:15:00,26.3,19.1,29.87,East,98,3.0,5.0,74,0.00,,,0.00,Wunderground v.1.15,2013-03-03 12:15:00,
2013-03-03 07:20:00,26.3,19.1,29.87,WSW,245,4.0,4.0,74,0.00,,,0.00,Wunderground v.1.15,2013-03-03 12:20:00,
2013-03-03 07:30:00,26.3,19.1,29.88,West,278,3.0,6.0,74,0.00,,,0.00,Wunderground v.1.15,2013-03-03 12:30:00,
2013-03-03 07:40:00,26.4,18.9,29.88,WSW,257,4.0,4.0,73,0.00,,,0.00,Wunderground v.1.15,2013-03-03 12:40:00,
2013-03-03 07:45:00,26.5,19.0,29.88,NW,312,5.0,6.0,73,0.00,,,0.00,Wunderground v.1.15,2013-03-03 12:45:00,
2013-03-03 07:55:00,26.6,18.5,29.89,WNW,292,5.0,10.0,71,0.00,,,0.00,Wunderground v.1.15,2013-03-03 12:55:00,
2013-03-03 08:05:00,26.9,19.1,29.89,South,181,5.0,6.0,72,0.00,,,0.00,Wunderground v.1.15,2013-03-03 13:05:00,
2013-03-03 08:15:00,27.4,19.6,29.89,NW,326,6.0,6.0,72,0.00,,,0.00,Wunderground v.1.15,2013-03-03 13:15:00,
2013-03-03 08:25:00,27.6,19.4,29.90,NW,316,3.0,4.0,71,0.00,,,0.00,Wunderground v.1.15,2013-03-03 13:25:00,
2013-03-03 08:35:00,27.5,19.0,29.90,WSW,258,6.0,10.0,70,0.00,,,0.00,Wunderground v.1.15,2013-03-03 13:35:00,
2013-03-03 08:40:00,27.4,18.6,29.89,SW,234,7.0,7.0,69,0.00,,,0.00,Wunderground v.1.15,2013-03-03 13:40:00,
2013-03-03 08:50:00,27.4,18.2,29.90,WNW,293,8.0,8.0,68,0.00,,,0.00,Wunderground v.1.15,2013-03-03 13:50:00,
2013-03-03 09:00:00,27.9,18.4,29.90,NW,305,5.0,5.0,67,0.00,,,0.00,Wunderground v.1.15,2013-03-03 14:00:00,
2013-03-03 09:05:00,27.9,18.4,29.89,WNW,285,5.0,12.0,67,0.00,,,0.00,Wunderground v.1.15,2013-03-03 14:05:00,
2013-03-03 09:15:00,27.9,17.6,29.90,NNW,329,9.0,10.0,65,0.00,,,0.00,Wunderground v.1.15,2013-03-03 14:15:00,
2013-03-03 09:25:00,28.2,17.6,29.90,SSW,206,8.0,9.0,64,0.00,,,0.00,Wunderground v.1.15,2013-03-03 14:25:00,
2013-03-03 09:30:00,28.2,17.2,29.89,SW,233,8.0,11.0,63,0.00,,,0.00,Wunderground v.1.15,2013-03-03 14:30:00,
2013-03-03 09:40:00,29.0,18.0,29.89,SSE,154,7.0,7.0,63,0.00,,,0.00,Wunderground v.1.15,2013-03-03 14:40:00,
2013-03-03 09:50:00,28.6,16.8,29.90,WNW,287,5.0,5.0,61,0.00,,,0.00,Wunderground v.1.15,2013-03-03 14:50:00,
2013-03-03 10:00:00,29.0,17.2,29.91,WSW,241,4.0,6.0,61,0.00,,,0.00,Wunderground v.1.15,2013-03-03 15:00:00,
2013-03-03 10:05:00,29.2,17.0,29.91,NNW,331,5.0,6.0,60,0.00,,,0.00,Wunderground v.1.15,2013-03-03 15:05:00,
2013-03-03 10:15:00,28.7,17.3,29.90,East,91,4.0,6.0,62,0.00,,,0.00,Wunderground v.1.15,2013-03-03 15:15:00,
2013-03-03 10:20:00,29.0,18.0,29.90,SSE,157,2.0,2.0,63,0.00,,,0.00,Wunderground v.1.15,2013-03-03 15:20:00,
2013-03-03 10:30:00,28.7,17.3,29.90,SSW,194,4.0,5.0,62,0.00,,,0.00,Wunderground v.1.15,2013-03-03 15:30:00,
2013-03-03 10:40:00,29.0,17.6,29.90,East,82,2.0,5.0,62,0.00,,,0.00,Wunderground v.1.15,2013-03-03 15:40:00,
2013-03-03 10:50:00,29.2,17.4,29.90,South,191,3.0,4.0,61,0.00,,,0.00,Wunderground v.1.15,2013-03-03 15:50:00,
2013-03-03 11:00:00,28.9,17.1,29.90,ENE,61,5.0,5.0,61,0.00,,,0.00,Wunderground v.1.15,2013-03-03 16:00:00,
2013-03-03 11:05:00,29.0,17.2,29.90,SSW,210,5.0,5.0,61,0.00,,,0.00,Wunderground v.1.15,2013-03-03 16:05:00,
2013-03-03 11:15:00,29.4,17.6,29.90,South,179,3.0,5.0,61,0.00,,,0.00,Wunderground v.1.15,2013-03-03 16:15:00,
2013-03-03 11:25:00,30.1,18.3,29.90,SW,233,5.0,8.0,61,0.00,,,0.00,Wunderground v.1.15,2013-03-03 16:25:00,
2013-03-03 11:35:00,29.8,17.6,29.90,WNW,293,5.0,5.0,60,0.00,,,0.00,Wunderground v.1.15,2013-03-03 16:35:00,
2013-03-03 11:40:00,29.9,18.8,29.90,NW,310,5.0,5.0,63,0.00,,,0.00,Wunderground v.1.15,2013-03-03 16:40:00,
2013-03-03 11:50:00,31.6,19.3,29.90,WSW,244,4.0,12.0,60,0.00,,,0.00,Wunderground v.1.15,2013-03-03 16:50:00,
2013-03-03 11:55:00,30.7,17.7,29.90,West,260,6.0,12.0,58,0.00,,,0.00,Wunderground v.1.15,2013-03-03 16:55:00,
2013-03-03 12:05:00,30.5,18.6,29.90,SSW,198,5.0,7.0,61,0.00,,,0.00,Wunderground v.1.15,2013-03-03 17:05:00,
2013-03-03 12:15:00,30.8,20.4,29.90,NNE,13,4.0,5.0,65,0.00,,,0.00,Wunderground v.1.15,2013-03-03 17:15:00,
2013-03-03 12:20:00,30.7,18.4,29.89,NNE,22,4.0,10.0,60,0.00,,,0.00,Wunderground v.1.15,2013-03-03 17:20:00,
2013-03-03 12:30:00,30.7,18.8,29.90,West,264,4.0,4.0,61,0.00,,,0.00,Wunderground v.1.15,2013-03-03 17:30:00,
2013-03-03 12:40:00,30.5,19.4,29.89,SSE,164,4.0,4.0,63,0.00,,,0.00,Wunderground v.1.15,2013-03-03 17:40:00,
2013-03-03 12:50:00,30.3,17.3,29.89,NE,37,5.0,5.0,58,0.00,,,0.00,Wunderground v.1.15,2013-03-03 17:50:00,
2013-03-03 13:00:00,30.3,16.9,29.88,NNE,23,9.0,9.0,57,0.00,,,0.00,Wunderground v.1.15,2013-03-03 18:00:00,
2013-03-03 13:05:00,31.0,17.9,29.88,NW,316,6.0,9.0,58,0.00,,,0.00,Wunderground v.1.15,2013-03-03 18:05:00,
2013-03-03 13:15:00,31.3,17.0,29.88,South,176,4.0,6.0,55,0.00,,,0.00,Wunderground v.1.15,2013-03-03 18:15:00,
2013-03-03 13:25:00,31.0,17.1,29.87,NW,304,5.0,6.0,56,0.00,,,0.00,Wunderground v.1.15,2013-03-03 18:25:00,
2013-03-03 13:30:00,30.9,17.4,29.87,WSW,241,6.0,8.0,57,0.00,,,0.00,Wunderground v.1.15,2013-03-03 18:30:00,
2013-03-03 13:40:00,30.8,17.3,29.87,WNW,295,5.0,5.0,57,0.00,,,0.00,Wunderground v.1.15,2013-03-03 18:40:00,
2013-03-03 13:45:00,31.0,17.9,29.88,North,354,4.0,7.0,58,0.00,,,0.00,Wunderground v.1.15,2013-03-03 18:45:00,
2013-03-03 13:55:00,31.5,18.4,29.86,West,268,5.0,7.0,58,0.00,,,0.01,Wunderground v.1.15,2013-03-03 18:55:00,
2013-03-03 14:05:00,31.1,16.8,29.87,WNW,301,8.0,8.0,55,0.00,,,0.01,Wunderground v.1.15,2013-03-03 19:05:00,
2013-03-03 14:15:00,31.1,17.6,29.87,WSW,251,9.0,15.0,57,0.00,,,0.01,Wunderground v.1.15,2013-03-03 19:15:00,
2013-03-03 14:25:00,31.0,17.5,29.87,South,189,8.0,14.0,57,0.00,,,0.01,Wunderground v.1.15,2013-03-03 19:25:00,
2013-03-03 14:30:00,31.3,17.4,29.87,SW,235,9.0,9.0,56,0.00,,,0.01,Wunderground v.1.15,2013-03-03 19:30:00,
2013-03-03 14:40:00,33.4,18.9,29.86,South,176,7.0,7.0,55,0.00,,,0.01,Wunderground v.1.15,2013-03-03 19:40:00,
2013-03-03 14:50:00,33.9,19.0,29.86,NW,314,8.0,8.0,54,0.00,,,0.01,Wunderground v.1.15,2013-03-03 19:50:00,
2013-03-03 14:55:00,33.9,19.0,29.86,SW,236,9.0,9.0,54,0.00,,,0.01,Wunderground v.1.15,2013-03-03 19:55:00,
2013-03-03 15:05:00,33.2,18.3,29.86,SSW,197,9.0,9.0,54,0.00,,,0.01,Wunderground v.1.15,2013-03-03 20:05:00,
2013-03-03 15:15:00,33.3,19.3,29.86,WNW,293,6.0,9.0,56,0.00,,,0.01,Wunderground v.1.15,2013-03-03 20:15:00,
2013-03-03 15:25:00,33.9,19.4,29.86,WSW,257,9.0,18.0,55,0.00,,,0.01,Wunderground v.1.15,2013-03-03 20:25:00,
2013-03-03 15:35:00,34.1,18.3,29.86,West,267,8.0,12.0,52,0.00,,,0.01,Wunderground v.1.15,2013-03-03 20:35:00,
2013-03-03 15:45:00,33.9,19.4,29.86,WSW,243,8.0,11.0,55,0.00,,,0.01,Wunderground v.1.15,2013-03-03 20:45:00,
2013-03-03 15:55:00,33.6,18.7,29.86,SSW,210,8.0,8.0,54,0.00,,,0.01,Wunderground v.1.15,2013-03-03 20:55:00,
2013-03-03 16:00:00,33.4,18.1,29.86,South,187,8.0,8.0,53,0.00,,,0.01,Wunderground v.1.15,2013-03-03 21:00:00,
2013-03-03 16:05:00,33.2,18.3,29.87,WNW,290,7.0,8.0,54,0.00,,,0.01,Wunderground v.1.15,2013-03-03 21:05:00,
2013-03-03 16:15:00,32.7,18.3,29.87,SW,220,6.0,6.0,55,0.00,,,0.01,Wunderground v.1.15,2013-03-03 21:15:00,
2013-03-03 16:25:00,32.5,18.1,29.87,SSE,156,8.0,17.0,55,0.00,,,0.01,Wunderground v.1.15,2013-03-03 21:25:00,
2013-03-03 16:30:00,32.8,18.4,29.87,SSE,160,7.0,7.0,55,0.00,,,0.01,Wunderground v.1.15,2013-03-03 21:30:00,
2013-03-03 16:40:00,32.2,17.8,29.87,WSW,249,5.0,5.0,55,0.00,,,0.01,Wunderground v.1.15,2013-03-03 21:40:00,
2013-03-03 16:50:00,31.4,17.9,29.87,NW,307,4.0,10.0,57,0.00,,,0.01,Wunderground v.1.15,2013-03-03 21:50:00,
2013-03-03 17:00:00,31.0,18.3,29.88,ESE,108,4.0,4.0,59,0.00,,,0.01,Wunderground v.1.15,2013-03-03 22:00:00,
2013-03-03 17:05:00,30.8,17.7,29.88,North,349,3.0,4.0,58,0.00,,,0.01,Wunderground v.1.15,2013-03-03 22:05:00,
2013-03-03 17:15:00,30.5,17.9,29.88,NNW,330,3.0,3.0,59,0.00,,,0.01,Wunderground v.1.15,2013-03-03 22:15:00,
2013-03-03 17:20:00,30.6,18.7,29.89,SSW,193,3.0,3.0,61,0.00,,,0.01,Wunderground v.1.15,2013-03-03 22:20:00,
2013-03-03 17:30:00,31.0,18.7,29.89,NNE,12,1.0,1.0,60,0.00,,,0.01,Wunderground v.1.15,2013-03-03 22:30:00,
2013-03-03 17:40:00,30.6,18.3,29.89,SW,228,2.0,2.0,60,0.00,,,0.01,Wunderground v.1.15,2013-03-03 22:40:00,
2013-03-03 17:50:00,30.0,18.5,29.89,West,280,2.0,5.0,62,0.00,,,0.01,Wunderground v.1.15,2013-03-03 22:50:00,
2013-03-03 18:00:00,29.6,18.9,29.89,NNW,345,3.0,6.0,64,0.00,,,0.01,Wunderground v.1.15,2013-03-03 23:00:00,
2013-03-03 18:05:00,29.3,18.6,29.89,WSW,238,4.0,6.0,64,0.00,,,0.01,Wunderground v.1.15,2013-03-03 23:05:00,
2013-03-03 18:15:00,28.9,19.3,29.90,SSW,198,6.0,8.0,67,0.00,,,0.01,Wunderground v.1.15,2013-03-03 23:15:00,
2013-03-03 18:25:00,28.5,18.9,29.89,SW,221,7.0,9.0,67,0.00,,,0.01,Wunderground v.1.15,2013-03-03 23:25:00,
2013-03-03 18:35:00,28.2,19.0,29.90,WSW,239,6.0,14.0,68,0.00,,,0.01,Wunderground v.1.15,2013-03-03 23:35:00,
2013-03-03 18:45:00,28.0,18.8,29.90,SSW,201,5.0,12.0,68,0.00,,,0.01,Wunderground v.1.15,2013-03-03 23:45:00,
2013-03-03 18:55:00,27.8,18.3,29.91,SW,223,6.0,11.0,67,0.00,,,0.01,Wunderground v.1.15,2013-03-03 23:55:00,
2013-03-03 19:05:00,27.7,18.2,29.91,WNW,299,4.0,8.0,67,0.00,,,0.01,Wunderground v.1.15,2013-03-04 00:05:00,
2013-03-03 19:15:00,27.7,18.2,29.92,NW,313,3.0,4.0,67,0.00,,,0.01,Wunderground v.1.15,2013-03-04 00:15:00,
2013-03-03 19:25:00,27.6,17.7,29.93,WNW,298,3.0,7.0,66,0.00,,,0.01,Wunderground v.1.15,2013-03-04 00:25:00,
2013-03-03 19:35:00,27.5,18.0,29.93,WSW,256,4.0,4.0,67,0.00,,,0.01,Wunderground v.1.15,2013-03-04 00:35:00,
2013-03-03 19:45:00,27.3,17.8,29.93,NNW,348,3.0,4.0,67,0.00,,,0.01,Wunderground v.1.15,2013-03-04 00:45:00,
2013-03-03 19:50:00,27.1,17.9,29.93,North,359,2.0,3.0,68,0.00,,,0.01,Wunderground v.1.15,2013-03-04 00:50:00,
2013-03-03 20:00:00,27.0,17.8,29.93,West,276,2.0,5.0,68,0.00,,,0.01,Wunderground v.1.15,2013-03-04 01:00:00,
2013-03-03 20:05:00,26.9,17.4,29.93,SSW,203,5.0,7.0,67,0.00,,,0.01,Wunderground v.1.15,2013-03-04 01:05:00,
2013-03-03 20:15:00,26.8,17.6,29.94,West,274,5.0,11.0,68,0.00,,,0.01,Wunderground v.1.15,2013-03-04 01:15:00,
2013-03-03 20:20:00,26.7,17.6,29.94,West,274,5.0,5.0,68,0.00,,,0.01,Wunderground v.1.15,2013-03-04 01:20:00,
2013-03-03 20:30:00,26.5,17.7,29.93,West,267,7.0,7.0,69,0.00,,,0.01,Wunderground v.1.15,2013-03-04 01:30:00,
2013-03-03 20:40:00,26.4,17.6,29.93,North,354,5.0,5.0,69,0.00,,,0.01,Wunderground v.1.15,2013-03-04 01:40:00,
2013-03-03 20:45:00,26.3,17.2,29.93,South,172,6.0,8.0,68,0.00,,,0.01,Wunderground v.1.15,2013-03-04 01:45:00,
2013-03-03 20:55:00,26.2,16.7,29.93,WNW,301,8.0,16.0,67,0.00,,,0.01,Wunderground v.1.15,2013-03-04 01:55:00,
2013-03-03 21:05:00,26.1,16.3,29.94,NNW,341,10.0,12.0,66,0.00,,,0.01,Wunderground v.1.15,2013-03-04 02:05:00,
2013-03-03 21:15:00,25.9,16.4,29.94,NNW,329,8.0,9.0,67,0.00,,,0.01,Wunderground v.1.15,2013-03-04 02:15:00,
2013-03-03 21:25:00,25.8,16.0,29.94,SSW,196,7.0,7.0,66,0.00,,,0.01,Wunderground v.1.15,2013-03-04 02:25:00,
2013-03-03 21:35:00,25.7,15.6,29.95,North,349,6.0,16.0,65,0.00,,,0.01,Wunderground v.1.15,2013-03-04 02:35:00,
2013-03-03 21:45:00,25.6,15.5,29.95,NE,50,5.0,7.0,65,0.00,,,0.01,Wunderground v.1.15,2013-03-04 02:45:00,
2013-03-03 21:55:00,25.7,15.9,29.96,West,261,5.0,5.0,66,0.00,,,0.01,Wunderground v.1.15,2013-03-04 02:55:00,
2013-03-03 22:00:00,25.7,15.9,29.95,SSW,210,4.0,4.0,66,0.00,,,0.01,Wunderground v.1.15,2013-03-04 03:00:00,
2013-03-03 22:05:00,25.7,16.6,29.96,WNW,291,3.0,4.0,68,0.00,,,0.01,Wunderground v.1.15,2013-03-04 03:05:00,
2013-03-03 22:15:00,25.6,16.8,29.96,SSW,213,4.0,4.0,69,0.00,,,0.01,Wunderground v.1.15,2013-03-04 03:15:00,
2013-03-03 22:25:00,25.6,16.8,29.96,SW,233,1.0,5.0,69,0.00,,,0.01,Wunderground v.1.15,2013-03-04 03:25:00,
2013-03-03 22:30:00,25.6,17.2,29.96,West,264,3.0,7.0,70,0.00,,,0.01,Wunderground v.1.15,2013-03-04 03:30:00,
2013-03-03 22:40:00,25.5,17.7,29.96,SW,216,4.0,4.0,72,0.00,,,0.01,Wunderground v.1.15,2013-03-04 03:40:00,
2013-03-03 22:50:00,25.4,17.6,29.96,SW,228,3.0,3.0,72,0.00,,,0.01,Wunderground v.1.15,2013-03-04 03:50:00,
2013-03-03 23:00:00,25.2,17.4,29.96,NNW,327,2.0,3.0,72,0.00,,,0.01,Wunderground v.1.15,2013-03-04 04:00:00,
2013-03-03 23:05:00,25.1,17.0,29.96,WNW,282,2.0,3.0,71,0.00,,,0.01,Wunderground v.1.15,2013-03-04 04:05:00,
2013-03-03 23:15:00,25.1,17.3,29.96,NE,39,1.0,2.0,72,0.00,,,0.01,Wunderground v.1.15,2013-03-04 04:15:00,
2013-03-03 23:25:00,25.0,17.2,29.96,SSW,207,4.0,5.0,72,0.00,,,0.01,Wunderground v.1.15,2013-03-04 04:25:00,
2013-03-03 23:35:00,25.0,16.9,29.96,West,268,2.0,3.0,71,0.00,,,0.01,Wunderground v.1.15,2013-03-04 04:35:00,
2013-03-03 23:45:00,24.9,16.5,29.96,SSW,212,2.0,5.0,70,0.00,,,0.01,Wunderground v.1.15,2013-03-04 04:45:00,
2013-03-03 23:55:00,25.0,16.6,29.96,WSW,250,5.0,9.0,70,0.00,,,0.01,Wunderground v.1.15,2013-03-04 04:55:00,